W4IOJ Weather Reports


time (UTC)temp
C
wind
direction
speed
KPH
gust
KPH
rain 1hr
cm
rain 24hr
cm
rain mn
cm
humidity
%
barometer
mb
20260505171521 25 260 1.6 9.7 0.00 0.00 0.00 36 1015.0
20260505170021 24 180 3.2 6.4 0.00 0.00 0.00 34 1014.9
20260505164517 24 250 1.6 8.0 0.00 0.00 0.00 33 1014.9
20260505163015 24 274 1.6 6.4 0.00 0.00 0.00 35 1015.2
20260505161515 23 214 1.6 6.4 0.00 0.00 0.00 35 1015.5
20260505153029 22 211 3.2 9.7 0.00 0.00 0.00 38 1016.0
20260505151520 23 257 1.6 8.0 0.00 0.00 0.00 38 1016.0
20260505124515 15 31 1.6 3.2 0.00 0.00 0.00 69 1015.9
20260505123028 14 13 1.6 4.8 0.00 0.00 0.00 71 1016.0
20260505121526 13 25 3.2 4.8 0.00 0.00 0.00 75 1015.9
20260505120038 12 1 0.0 3.2 0.00 0.00 0.00 77 1015.8
20260505114505 11 45 0.0 3.2 0.00 0.00 0.00 81 1015.6
20260505113006 9 29 1.6 3.2 0.00 0.00 0.00 86 1015.4
20260505111528 9 7 0.0 3.2 0.00 0.00 0.00 86 1015.1
20260505101506 8 59 0.0 0.0 0.00 0.00 0.00 86 1015.0
20260505100004 8 59 0.0 3.2 0.00 0.00 0.00 85 1015.0
20260505094521 8 15 0.0 3.2 0.00 0.00 0.00 85 1015.1
20260505093022 8 105 0.0 1.6 0.00 0.00 0.00 84 1015.0
20260505091519 9 146 0.0 3.2 0.00 0.00 0.00 83 1015.0
20260505090015 9 166 0.0 3.2 0.00 0.00 0.00 83 1015.1
20260505084513 9 259 0.0 0.0 0.00 0.00 0.00 84 1014.8
20260505083017 9 259 0.0 0.0 0.00 0.00 0.00 85 1014.7
20260505081527 9 259 0.0 0.0 0.00 0.00 0.00 85 1014.6
20260505080033 9 259 0.0 0.0 0.00 0.00 0.00 85 1014.4
20260505074521 9 259 0.0 0.0 0.00 0.00 0.00 84 1014.2
20260505073032 9 259 0.0 0.0 0.00 0.00 0.00 84 1014.1
20260505071512 10 259 0.0 0.0 0.00 0.00 0.00 85 1013.9
20260505070010 10 259 0.0 0.0 0.00 0.00 0.00 85 1013.7
20260505064525 10 259 0.0 3.2 0.00 0.00 0.00 85 1013.7
20260505063032 10 287 0.0 3.2 0.00 0.00 0.00 84 1013.6
20260505061528 10 287 0.0 3.2 0.00 0.00 0.00 84 1013.7
20260505060047 10 287 0.0 1.6 0.00 0.00 0.00 84 1013.8
20260505054519 10 287 0.0 3.2 0.00 0.00 0.00 83 1013.8
20260505053015 11 287 0.0 0.0 0.00 0.00 0.00 81 1013.9
20260505051507 11 287 0.0 0.0 0.00 0.00 0.00 81 1013.8
20260505041520 12 287 0.0 3.2 0.00 0.00 0.00 77 1013.6
20260505040022 12 287 0.0 3.2 0.00 0.00 0.00 77 1013.7
20260505034515 12 287 0.0 0.0 0.00 0.00 0.00 77 1013.7
20260505033026 13 287 0.0 0.0 0.00 0.00 0.00 77 1013.8
20260505031527 13 287 0.0 3.2 0.00 0.00 0.00 75 1013.9
20260505030024 13 287 0.0 0.0 0.00 0.00 0.00 74 1014.0
20260505024524 14 287 0.0 0.0 0.00 0.00 0.00 73 1014.0
20260505023023 15 287 0.0 0.0 0.00 0.00 0.00 72 1014.0
20260505021519 15 287 0.0 0.0 0.00 0.00 0.00 72 1013.9
20260505020034 16 287 0.0 3.2 0.00 0.00 0.00 70 1013.8
20260505014535 16 287 0.0 3.2 0.00 0.00 0.00 68 1013.7
20260505013036 16 287 0.0 1.6 0.00 0.00 0.00 65 1013.6
20260505011534 17 287 0.0 3.2 0.00 0.00 0.00 63 1013.4
20260505010024 18 287 0.0 0.0 0.00 0.00 0.00 61 1013.4
20260505004534 19 287 0.0 0.0 0.00 0.00 0.00 57 1013.2
20260505003036 20 287 0.0 0.0 0.00 0.00 0.00 55 1012.9
20260505001530 21 221 0.0 0.0 0.00 0.00 0.00 52 1012.8
20260505000033 22 221 0.0 3.2 0.00 0.00 0.00 48 1012.9
20260504234527 23 261 0.0 3.2 0.00 0.00 0.00 43 1012.7
20260504233028 24 301 0.0 3.2 0.00 0.00 0.00 41 1012.6
20260504231525 25 17 1.6 3.2 0.00 0.00 0.00 39 1012.5
20260504230022 25 18 1.6 8.0 0.00 0.00 0.00 38 1012.5
20260504224529 25 237 0.0 6.4 0.00 0.00 0.00 38 1012.5
20260504223018 25 334 0.0 8.0 0.00 0.00 0.00 37 1012.5
20260504221515 26 340 0.0 4.8 0.00 0.00 0.00 38 1012.6
20260504220008 25 7 1.6 9.7 0.00 0.00 0.00 39 1012.6
20260504214522 26 17 0.0 8.0 0.00 0.00 0.00 38 1012.5
20260504213029 25 198 1.6 8.0 0.00 0.00 0.00 38 1012.8
20260504211534 25 206 3.2 4.8 0.00 0.00 0.00 36 1012.8
20260504210023 25 307 1.6 8.0 0.00 0.00 0.00 39 1012.9
20260504204520 25 168 3.2 8.0 0.00 0.00 0.00 38 1013.1
20260504203016 25 234 3.2 11.3 0.00 0.00 0.00 39 1013.2
20260504201521 25 238 1.6 8.0 0.00 0.00 0.00 41 1013.5
20260504200009 25 315 4.8 12.9 0.00 0.00 0.00 40 1013.6
20260504194527 25 251 4.8 9.7 0.00 0.00 0.00 40 1014.0
20260504193024 24 1 1.6 12.9 0.00 0.00 0.00 40 1014.3
20260504191522 24 314 3.2 8.0 0.00 0.00 0.00 41 1014.6
20260504190020 24 162 3.2 11.3 0.00 0.00 0.00 42 1014.9
20260504184533 23 308 3.2 12.9 0.00 0.00 0.00 41 1015.2
20260504183012 22 321 0.0 4.8 0.00 0.00 0.00 43 1015.3
20260504181523 22 260 3.2 6.4 0.00 0.00 0.00 42 1015.6
20260504180025 22 284 1.6 8.0 0.00 0.00 0.00 41 1015.6
20260504174524 22 352 1.6 11.3 0.00 0.00 0.00 41 1015.8
20260504173023 21 176 1.6 3.2 0.00 0.00 0.00 41 1015.8